Time,TemperatureF,DewpointF,PressureIn,WindDirection,WindDirectionDegrees,WindSpeedMPH,WindSpeedGustMPH,Humidity,HourlyPrecipIn,Conditions,Clouds,dailyrainin,SoftwareType,DateUTC
2013-06-29 00:12:00,55.0,-99.9,-100.00,NW,323,0.0,0.0,-999,-99.99,,,-99.99,,2013-06-29 08:12:00,
2013-06-29 00:22:00,55.0,-99.9,-100.00,NW,323,0.0,0.0,-999,-99.99,,,-99.99,,2013-06-29 08:22:00,
2013-06-29 00:34:00,55.0,-99.9,-100.00,NW,323,0.0,0.0,-999,-99.99,,,-99.99,,2013-06-29 08:34:00,
2013-06-29 00:43:00,55.0,-99.9,-100.00,NW,323,0.0,0.0,-999,-99.99,,,-99.99,,2013-06-29 08:43:00,
2013-06-29 00:52:00,55.0,-99.9,-100.00,NW,323,0.0,0.0,-999,-99.99,,,-99.99,,2013-06-29 08:52:00,
2013-06-29 01:12:00,55.0,-99.9,-100.00,West,265,0.0,0.0,-999,-99.99,,,-99.99,,2013-06-29 09:12:00,
2013-06-29 01:22:00,55.0,-99.9,-100.00,West,265,0.0,0.0,-999,-99.99,,,-99.99,,2013-06-29 09:22:00,
2013-06-29 01:33:00,55.0,-99.9,-100.00,West,265,0.0,0.0,-999,-99.99,,,-99.99,,2013-06-29 09:33:00,
2013-06-29 01:42:00,55.0,-99.9,-100.00,West,265,0.0,0.0,-999,-99.99,,,-99.99,,2013-06-29 09:42:00,
2013-06-29 01:53:00,55.0,-99.9,-100.00,West,265,0.0,0.0,-999,-99.99,,,-99.99,,2013-06-29 09:53:00,
2013-06-29 02:11:00,54.0,-99.9,-100.00,West,265,0.0,0.0,-999,-99.99,,,-99.99,,2013-06-29 10:11:00,
2013-06-29 02:22:00,54.0,-99.9,-100.00,West,265,0.0,0.0,-999,-99.99,,,-99.99,,2013-06-29 10:22:00,
2013-06-29 02:33:00,54.0,-99.9,-100.00,West,265,0.0,0.0,-999,-99.99,,,-99.99,,2013-06-29 10:33:00,
2013-06-29 02:43:00,54.0,-99.9,-100.00,West,265,0.0,0.0,-999,-99.99,,,-99.99,,2013-06-29 10:43:00,
2013-06-29 02:53:00,54.0,-99.9,-100.00,West,265,0.0,0.0,-999,-99.99,,,-99.99,,2013-06-29 10:53:00,
2013-06-29 05:23:00,54.0,-99.9,-100.00,West,265,0.0,0.0,-999,-99.99,,,-99.99,,2013-06-29 13:23:00,
2013-06-29 05:34:00,54.0,-99.9,-100.00,West,265,0.0,0.0,-999,-99.99,,,-99.99,,2013-06-29 13:34:00,
2013-06-29 05:43:00,54.0,-99.9,-100.00,West,265,0.0,0.0,-999,-99.99,,,-99.99,,2013-06-29 13:43:00,
2013-06-29 05:53:00,54.0,-99.9,-100.00,West,265,0.0,0.0,-999,-99.99,,,-99.99,,2013-06-29 13:53:00,
2013-06-29 08:12:00,55.0,-99.9,-100.00,West,265,0.0,0.0,-999,-99.99,,,-99.99,,2013-06-29 16:12:00,
2013-06-29 08:23:00,55.0,-99.9,-100.00,West,265,0.0,0.0,-999,-99.99,,,-99.99,,2013-06-29 16:23:00,
2013-06-29 08:34:00,55.0,-99.9,-100.00,West,265,0.0,0.0,-999,-99.99,,,-99.99,,2013-06-29 16:34:00,
2013-06-29 08:43:00,55.0,-99.9,-100.00,West,265,0.0,0.0,-999,-99.99,,,-99.99,,2013-06-29 16:43:00,
2013-06-29 08:53:00,55.0,-99.9,-100.00,West,265,0.0,0.0,-999,-99.99,,,-99.99,,2013-06-29 16:53:00,
2013-06-29 11:12:00,59.0,-99.9,-100.00,West,265,0.0,0.0,-999,-99.99,,,-99.99,,2013-06-29 19:12:00,
2013-06-29 11:22:00,59.0,-99.9,-100.00,West,265,0.0,0.0,-999,-99.99,,,-99.99,,2013-06-29 19:22:00,
2013-06-29 11:34:00,59.0,-99.9,-100.00,West,265,0.0,0.0,-999,-99.99,,,-99.99,,2013-06-29 19:34:00,
2013-06-29 11:43:00,59.0,-99.9,-100.00,West,265,0.0,0.0,-999,-99.99,,,-99.99,,2013-06-29 19:43:00,
2013-06-29 11:54:00,59.0,-99.9,-100.00,West,265,0.0,0.0,-999,-99.99,,,-99.99,,2013-06-29 19:54:00,
2013-06-29 13:11:00,63.0,-99.9,-100.00,NW,306,0.0,0.0,-999,-99.99,,,-99.99,,2013-06-29 21:11:00,
2013-06-29 13:22:00,63.0,-99.9,-100.00,NW,306,0.0,0.0,-999,-99.99,,,-99.99,,2013-06-29 21:22:00,
2013-06-29 13:32:00,63.0,-99.9,-100.00,NW,306,0.0,0.0,-999,-99.99,,,-99.99,,2013-06-29 21:32:00,
2013-06-29 13:42:00,63.0,-99.9,-100.00,NW,306,0.0,0.0,-999,-99.99,,,-99.99,,2013-06-29 21:42:00,
2013-06-29 13:52:00,63.0,-99.9,-100.00,NW,306,0.0,0.0,-999,-99.99,,,-99.99,,2013-06-29 21:52:00,
2013-06-29 15:12:00,64.0,-99.9,-100.00,NNE,15,0.0,0.0,-999,-99.99,,,-99.99,,2013-06-29 23:12:00,
2013-06-29 15:24:00,64.0,-99.9,-100.00,NNE,15,0.0,0.0,-999,-99.99,,,-99.99,,2013-06-29 23:24:00,
2013-06-29 15:34:00,64.0,-99.9,-100.00,NNE,15,0.0,0.0,-999,-99.99,,,-99.99,,2013-06-29 23:34:00,
2013-06-29 15:43:00,64.0,-99.9,-100.00,NNE,15,0.0,0.0,-999,-99.99,,,-99.99,,2013-06-29 23:43:00,
2013-06-29 15:53:00,64.0,-99.9,-100.00,NNE,15,0.0,0.0,-999,-99.99,,,-99.99,,2013-06-29 23:53:00,
2013-06-29 17:12:00,66.0,-99.9,-100.00,SSW,208,0.0,4.0,-999,-99.99,,,-99.99,,2013-06-30 01:12:00,
2013-06-29 17:22:00,66.0,-99.9,-100.00,SSW,208,0.0,4.0,-999,-99.99,,,-99.99,,2013-06-30 01:22:00,
2013-06-29 17:33:00,66.0,-99.9,-100.00,SSW,208,0.0,4.0,-999,-99.99,,,-99.99,,2013-06-30 01:33:00,
2013-06-29 17:44:00,66.0,-99.9,-100.00,SSW,208,0.0,4.0,-999,-99.99,,,-99.99,,2013-06-30 01:44:00,
2013-06-29 17:53:00,66.0,-99.9,-100.00,SSW,208,0.0,4.0,-999,-99.99,,,-99.99,,2013-06-30 01:53:00,
2013-06-29 18:12:00,67.0,-99.9,-100.00,SSW,200,0.0,0.0,-999,-99.99,,,-99.99,,2013-06-30 02:12:00,
2013-06-29 18:24:00,67.0,-99.9,-100.00,SSW,200,0.0,0.0,-999,-99.99,,,-99.99,,2013-06-30 02:24:00,
2013-06-29 18:34:00,67.0,-99.9,-100.00,SSW,200,0.0,0.0,-999,-99.99,,,-99.99,,2013-06-30 02:34:00,
2013-06-29 18:43:00,67.0,-99.9,-100.00,SSW,200,0.0,0.0,-999,-99.99,,,-99.99,,2013-06-30 02:43:00,
2013-06-29 18:53:00,67.0,-99.9,-100.00,SSW,200,0.0,0.0,-999,-99.99,,,-99.99,,2013-06-30 02:53:00,
2013-06-29 21:12:00,63.0,-99.9,-100.00,SW,218,0.0,0.0,-999,-99.99,,,-99.99,,2013-06-30 05:12:00,
2013-06-29 21:22:00,63.0,-99.9,-100.00,SW,218,0.0,0.0,-999,-99.99,,,-99.99,,2013-06-30 05:22:00,
2013-06-29 21:34:00,63.0,-99.9,-100.00,SW,218,0.0,0.0,-999,-99.99,,,-99.99,,2013-06-30 05:34:00,
2013-06-29 21:43:00,63.0,-99.9,-100.00,SW,218,0.0,0.0,-999,-99.99,,,-99.99,,2013-06-30 05:43:00,
2013-06-29 21:53:00,63.0,-99.9,-100.00,SW,218,0.0,0.0,-999,-99.99,,,-99.99,,2013-06-30 05:53:00,
2013-06-29 22:12:00,62.0,-99.9,-100.00,SW,218,0.0,0.0,-999,-99.99,,,-99.99,,2013-06-30 06:12:00,
2013-06-29 22:23:00,62.0,-99.9,-100.00,SW,218,0.0,0.0,-999,-99.99,,,-99.99,,2013-06-30 06:23:00,
2013-06-29 22:34:00,62.0,-99.9,-100.00,SW,218,0.0,0.0,-999,-99.99,,,-99.99,,2013-06-30 06:34:00,
2013-06-29 22:43:00,62.0,-99.9,-100.00,SW,218,0.0,0.0,-999,-99.99,,,-99.99,,2013-06-30 06:43:00,
2013-06-29 22:53:00,62.0,-99.9,-100.00,SW,218,0.0,0.0,-999,-99.99,,,-99.99,,2013-06-30 06:53:00,